Location: Gleizolles
(44.4833°N, 6.7667°E)
Time: 06:39:41
(UTC+00:00)

ISS - Visible Passes

Search period start: 07 December 2021 00:00
Search period end: 17 December 2021 00:00
Orbit: 417 x 422 km, 51.6° (Epoch: 06 December)

Date Brightness Start Highest point End Pass type
(mag) Time Alt. Az. Time Alt. Az. Time Alt. Az.
07 Dec -1.3 17:51:40 10° W 17:54:22 22° SW 17:57:03 10° S visible
08 Dec -2.1 17:03:58 10° WNW 17:07:06 35° SW 17:10:13 10° SSE visible
10 Dec -0.5 17:06:58 10° W 17:08:45 14° SW 17:10:32 10° SSW visible
